TimeEST,TemperatureF,Dew PointF,Humidity,Sea Level PressureIn,VisibilityMPH,Wind Direction,Wind SpeedMPH,Gust SpeedMPH,PrecipitationIn,Events,Conditions,WindDirDegrees,DateUTC
12:15 AM,39.2,39.2,100,30.10,1.5,NNE,5.8,-,N/A,,Overcast,30,2013-02-23 05:15:00
12:35 AM,39.2,39.2,100,30.10,1.5,NE,8.1,-,N/A,,Overcast,50,2013-02-23 05:35:00
12:55 AM,39.2,39.2,100,30.10,1.5,NNE,6.9,-,N/A,,Overcast,30,2013-02-23 05:55:00
1:15 AM,37.4,37.4,100,30.09,1.2,NNE,6.9,-,N/A,,Overcast,30,2013-02-23 06:15:00
1:35 AM,37.4,37.4,100,30.09,1.0,NNE,6.9,-,N/A,,Overcast,20,2013-02-23 06:35:00
1:55 AM,39.2,39.2,100,30.08,1.0,NNE,8.1,-,N/A,Rain,Light Rain,30,2013-02-23 06:55:00
2:15 AM,37.4,37.4,100,30.07,1.0,NNE,8.1,-,N/A,,Overcast,20,2013-02-23 07:15:00
2:35 AM,37.4,37.4,100,30.07,1.2,North,6.9,-,N/A,Rain,Light Rain,10,2013-02-23 07:35:00
2:55 AM,37.4,37.4,100,30.05,2.0,NNE,6.9,-,N/A,Rain,Light Rain,20,2013-02-23 07:55:00
3:35 AM,37.4,37.4,100,30.01,2.5,NE,6.9,-,0.01,Rain,Light Rain,50,2013-02-23 08:35:00
3:55 AM,37.4,37.4,100,30.02,1.5,North,5.8,-,0.03,Rain,Light Rain,360,2013-02-23 08:55:00
4:15 AM,37.4,37.4,100,30.01,3.0,NNE,6.9,-,0.02,Rain,Light Rain,30,2013-02-23 09:15:00
4:35 AM,37.4,37.4,100,30.00,4.0,NNE,5.8,-,0.02,Rain,Light Rain,30,2013-02-23 09:35:00
4:55 AM,37.4,37.4,100,30.01,5.0,North,4.6,-,0.03,Rain,Light Rain,10,2013-02-23 09:55:00
5:15 AM,37.4,37.4,100,29.99,5.0,NE,8.1,-,0.01,Rain,Rain,40,2013-02-23 10:15:00
5:35 AM,37.4,37.4,100,30.01,4.0,NNE,8.1,-,0.04,Rain,Rain,20,2013-02-23 10:35:00
5:55 AM,37.4,37.4,100,29.99,5.0,NE,6.9,-,0.07,Rain,Light Rain,50,2013-02-23 10:55:00
6:15 AM,37.4,37.4,100,29.99,5.0,ENE,6.9,-,0.01,Rain,Rain,60,2013-02-23 11:15:00
6:35 AM,37.4,37.4,100,29.99,5.0,ENE,6.9,-,0.03,Rain,Light Rain,60,2013-02-23 11:35:00
6:55 AM,37.4,37.4,100,29.97,5.0,ENE,6.9,-,0.07,Rain,Rain,60,2013-02-23 11:55:00
7:15 AM,37.4,37.4,100,29.98,6.0,Calm,Calm,-,0.02,Rain,Light Rain,0,2013-02-23 12:15:00
7:35 AM,39.2,39.2,100,30.01,10.0,NNW,8.1,-,0.02,Rain,Light Rain,340,2013-02-23 12:35:00
7:55 AM,39.2,39.2,100,30.01,4.0,North,6.9,-,0.06,Rain,Heavy Rain,10,2013-02-23 12:55:00
8:15 AM,39.2,39.2,100,29.97,4.0,East,8.1,-,0.06,Rain,Heavy Rain,90,2013-02-23 13:15:00
8:35 AM,39.2,39.2,100,29.98,8.0,NE,6.9,-,0.07,Rain,Light Rain,40,2013-02-23 13:35:00
8:55 AM,39.2,39.2,100,29.98,4.0,NNE,4.6,-,0.15,Rain,Light Rain,20,2013-02-23 13:55:00
9:15 AM,39.2,39.2,100,29.98,4.0,SE,6.9,-,0.01,Rain,Light Rain,140,2013-02-23 14:15:00
9:35 AM,41.0,41.0,100,29.97,7.0,SE,3.5,-,0.01,Rain,Light Rain,140,2013-02-23 14:35:00
9:55 AM,41.0,41.0,100,29.97,6.0,North,3.5,-,0.01,Rain,Light Rain,10,2013-02-23 14:55:00
10:15 AM,41.0,41.0,100,29.96,8.0,NNE,3.5,-,N/A,Rain,Light Rain,30,2013-02-23 15:15:00
10:35 AM,41.0,41.0,100,29.97,10.0,NNE,4.6,-,N/A,,Overcast,20,2013-02-23 15:35:00
10:55 AM,41.0,41.0,100,29.99,10.0,Calm,Calm,-,N/A,,Overcast,0,2013-02-23 15:55:00
11:15 AM,41.0,41.0,100,29.99,2.5,Calm,Calm,-,0.01,Rain,Light Rain,0,2013-02-23 16:15:00
11:35 AM,41.0,41.0,100,29.96,6.0,NNE,4.6,-,0.02,Rain,Light Rain,20,2013-02-23 16:35:00
11:55 AM,42.8,42.8,100,29.95,9.0,NE,3.5,-,0.02,,Overcast,40,2013-02-23 16:55:00
12:15 PM,42.8,42.8,100,29.96,3.0,NNE,4.6,-,N/A,,Overcast,30,2013-02-23 17:15:00
12:35 PM,42.8,42.8,100,29.96,2.0,Calm,Calm,-,N/A,,Overcast,0,2013-02-23 17:35:00
12:55 PM,42.8,42.8,100,29.95,2.0,NNW,5.8,-,N/A,,Overcast,340,2013-02-23 17:55:00
1:15 PM,44.6,44.6,100,29.94,1.8,NNE,3.5,-,N/A,,Overcast,20,2013-02-23 18:15:00
1:35 PM,44.6,44.6,100,29.93,1.5,NNE,5.8,-,N/A,,Overcast,20,2013-02-23 18:35:00
1:55 PM,44.6,44.6,100,29.93,1.2,North,5.8,-,N/A,,Overcast,10,2013-02-23 18:55:00
2:15 PM,44.6,44.6,100,29.93,2.5,North,4.6,-,0.01,,Overcast,350,2013-02-23 19:15:00
2:35 PM,44.6,44.6,100,29.91,2.5,NNE,4.6,-,0.01,,Overcast,30,2013-02-23 19:35:00
2:55 PM,44.6,44.6,100,29.91,2.5,NNE,3.5,-,0.01,,Overcast,20,2013-02-23 19:55:00
3:15 PM,44.6,44.6,100,29.89,5.0,Calm,Calm,-,N/A,,Overcast,0,2013-02-23 20:15:00
3:35 PM,44.6,44.6,100,29.89,10.0,Calm,Calm,-,N/A,,Overcast,0,2013-02-23 20:35:00
3:55 PM,44.6,44.6,100,29.88,3.0,Calm,Calm,-,N/A,,Overcast,0,2013-02-23 20:55:00
4:15 PM,44.6,44.6,100,29.90,2.0,NNW,3.5,-,N/A,,Overcast,330,2013-02-23 21:15:00
4:35 PM,44.6,44.6,100,29.87,1.8,Calm,Calm,-,N/A,,Overcast,0,2013-02-23 21:35:00
4:55 PM,44.6,44.6,100,29.87,5.0,North,6.9,-,N/A,,Overcast,350,2013-02-23 21:55:00
5:15 PM,44.6,44.6,100,29.89,8.0,Calm,Calm,-,N/A,,Overcast,0,2013-02-23 22:15:00
5:35 PM,44.6,44.6,100,29.90,10.0,Calm,Calm,-,N/A,,Overcast,0,2013-02-23 22:35:00
5:55 PM,44.6,44.6,100,29.87,8.0,Calm,Calm,-,N/A,,Overcast,0,2013-02-23 22:55:00
6:15 PM,44.6,44.6,100,29.89,10.0,Calm,Calm,-,N/A,,Overcast,0,2013-02-23 23:15:00
6:35 PM,44.6,44.6,100,29.89,7.0,Calm,Calm,-,N/A,,Overcast,0,2013-02-23 23:35:00
6:55 PM,44.6,44.6,100,29.89,4.0,Calm,Calm,-,N/A,,Mist,0,2013-02-23 23:55:00
7:15 PM,44.6,44.6,100,29.91,1.8,Calm,Calm,-,N/A,,Overcast,0,2013-02-24 00:15:00
7:35 PM,44.6,44.6,100,29.91,1.0,NW,3.5,-,N/A,,Overcast,310,2013-02-24 00:35:00
7:55 PM,44.6,44.6,100,29.92,3.0,NW,4.6,-,N/A,,Overcast,310,2013-02-24 00:55:00
8:15 PM,44.6,44.6,100,29.92,3.0,WNW,3.5,-,N/A,,Overcast,300,2013-02-24 01:15:00
8:35 PM,44.6,44.6,100,29.91,2.5,Calm,Calm,-,N/A,,Overcast,0,2013-02-24 01:35:00
8:55 PM,44.6,44.6,100,29.90,1.0,Calm,Calm,-,N/A,,Overcast,0,2013-02-24 01:55:00
9:15 PM,44.6,44.6,100,29.91,0.8,Calm,Calm,-,N/A,,Overcast,0,2013-02-24 02:15:00
9:35 PM,44.6,44.6,100,29.94,0.8,WNW,6.9,-,N/A,,Overcast,300,2013-02-24 02:35:00
9:55 PM,44.6,44.6,100,29.91,0.5,South,5.8,-,N/A,Fog,Fog,170,2013-02-24 02:55:00
10:15 PM,44.6,44.6,100,29.87,0.8,SSE,6.9,-,N/A,,Overcast,160,2013-02-24 03:15:00
10:35 PM,44.6,44.6,100,29.86,1.8,SSE,3.5,-,N/A,,Overcast,160,2013-02-24 03:35:00
10:55 PM,44.6,44.6,100,29.88,5.0,NW,3.5,-,N/A,,Overcast,320,2013-02-24 03:55:00
11:55 PM,44.6,44.6,100,29.87,4.0,Calm,Calm,-,N/A,,Overcast,0,2013-02-24 04:55:00